Flag for Austria Weather past 2 weeks in Fürstenfeld, Styria, Austria

Now
43 °F

Quite cool.


Feels Like: 41 °F
Forecast: 36 / 52 °F
Wind: 3 mph from Southwest

Location: Murska Sobota

Current Time: Oct 22, 2014 at 10:42:20 AM

Latest Report: Oct 22, 2014 at 10:00 AM


Visibility: N/A

Pressure: 29.76 "Hg

Humidity: 94%

Dew point: 42 °F

Location of FürstenfeldLocation

Historic Weather in Fürstenfeld — Graph

°F

Fürstenfeld temperature yesterday

Maximum temperature yesterday: 66 °F (at 2:00 PM)
Minimum temperature yesterday: 52 °F (at 4:00 AM)
Average temperature yesterday: 60 °F

Past Weeks' High & Low Weather Summary

 TemperatureHumidityPressure
High79 °F (Oct 10, 1:00 PM)100% (Oct 8, 4:00 AM)30.35 "Hg (Oct 8, 4:00 AM)
Low42 °F (Oct 22, 8:00 AM)44% (Oct 14, 3:00 PM)29.61 "Hg (Oct 22, 1:00 AM)
Average62 °F82%29.97 "Hg
* Reported Oct 7 9:00 AM — Oct 22 9:00 AM, Fürstenfeld, Weather by CustomWeather, © 2014

Note: Actual official high and low records may vary slightly from our data, if they occured in-between our weather recording intervals... More about our weather records

Advertising

Fürstenfeld weather history for previous 24 hours

 ConditionsComfort  
Time TempWeatherWind HumidityBarometerVisibility
9:00 AM
Oct 22
43 °FQuite cool.1 mph94%29.81 "HgN/A
8:00 AM42 °FRain. Overcast.3 mph91%29.81 "Hg1 mi
7:00 AM43 °FRain. Overcast.3 mph94%29.79 "Hg1 mi
6:00 AM44 °FQuite cool.6 mph92%29.79 "HgN/A
5:00 AM45 °FCool.7 mph91%29.77 "HgN/A
4:00 AM46 °FCool.9 mph89%N/AN/A
2:00 AM55 °FCool.3 mph95%29.65 "HgN/A
1:00 AM59 °FCool.6 mph94%29.61 "HgN/A
12:00 AM59 °FCool.2 mph97%29.63 "HgN/A
11:00 PM
Oct 21
59 °FCool.1 mph96%29.66 "HgN/A
10:00 PM59 °FCool.2 mph95%29.69 "HgN/A
9:00 PM60 °FCool.2 mph91%29.73 "HgN/A
8:00 PM60 °FThunderstorms. Overcast.3 mph89%29.75 "Hg6 mi
7:00 PM62 °FCool.3 mph85%29.78 "HgN/A
6:00 PM64 °FMild.3 mph81%29.79 "HgN/A
5:00 PM66 °FMild.3 mph77%29.80 "HgN/A
4:00 PM66 °FMild.5 mph76%29.81 "HgN/A
3:00 PM66 °FOvercast.3 mph76%29.84 "Hg6 mi
2:00 PM66 °FOvercast.1 mph76%29.86 "Hg6 mi
1:00 PM66 °FPartly sunny.2 mph76%29.88 "Hg6 mi
12:00 PM64 °FFog.1 mph81%29.92 "Hg6 mi
11:00 AM62 °FFog.1 mph87%29.93 "Hg1 mi
10:00 AM60 °FFog.No wind93%29.92 "Hg1 mi
Weather by CustomWeather, © 2014

See weather overviewHow to use our weather pages